Simultaneous Nadir Overpasses (SNOs) Predictions

Prediction of SNOs between GOES-14 and AQUA Satellite Orbit:

Table of predicted SNOs for the next 14.0 days since TLE Epoch: 4/17/2020
Index Date Time (GOES-14) GOES-14 Lat,Lon AQUA Lat,Lon Distance(km) Time Diff (sec)
1 04/18/2020 08:17:41 0.14,-104.13 -0.67,-100.24 442.14 80
2 04/18/2020 20:39:06 -0.13,-104.15 -0.39,-105.44 146.98 80
3 04/20/2020 20:24:14 -0.14,-104.15 0.22,-102.48 189.58 80
4 04/21/2020 08:45:28 0.13,-104.12 0.89,-107.64 399.60 80
5 04/23/2020 08:33:17 0.13,-104.13 0.27,-104.68 62.60 80
6 04/25/2020 08:23:46 0.13,-104.14 -0.41,-101.73 274.24 80
7 04/25/2020 20:45:09 -0.11,-104.18 -0.71,-106.92 312.21 80
8 04/27/2020 20:30:17 -0.12,-104.17 -0.09,-103.96 23.90 80
9 04/29/2020 20:18:05 -0.12,-104.17 0.54,-101.00 359.82 80
10 04/30/2020 08:39:20 0.11,-104.12 0.56,-106.15 232.07 80




NCC Satellite Simultaneous Nadir Overpasses (SNOs) Prediction Service
